map of PSS home
PSS - Airport
Location
City:  Posadas, Misiones, Argentina
Name:Libertador Gernal José de San Martín Airport
ICAO:SARP
IATA:PSS

Details
Type:Airport (Aerodrome, Airfield)
Latitude:27°23'09"S (-27.385838)
Longitude:55°58'15"W (-55.970727)
Datum:WGS 1984
Elevation:430 ft (131 m)
Variation:14.55°W (WMM2015 magnetic declination)
-0.18° annual change
Runways:1
Longest:7406 × 98 ft (2257 × 30 m), paved

Time
Time Zone:UTC-3
Local Time:

Weather
METAR:SARP 160500Z 00000KT CAVOK 27/21 Q1008
TAF:SARP 152300Z 1600/1624 VRB03KT CAVOK TX37/1618Z TN21/1609Z
BECMG 1602/1604 05005KT CAVOK

Related Locations
Nearby:
Farthest:HYN: 12264 mi / 19737 km
Huangyan [Luqiao], 33, CN

Find:

   beyond  
but within

Other Information
Maps:
NOTAMs:
Links:
Sources:

  
flag of Argentina
flag of Misiones
  

Sectional Chart

Flight Planning
at skyvector.com

Satellite Image

Google Maps Satellite view

 

Copyright © 2004-2017 Karl L. Swartz. All rights reserved.
The Great Circle Mapper name and logo are trademarks of the Great Circle Mapper.
All other trademarks mentioned herein belong to their respective owners.
Please see credits for attibutions and further copyright information.

  Follow gcmap on Facebook Follow gcmap on Twitter Follow gcmap on Google+ GCmap on LinkedIn

hCard Microformat

Geo Microformat